Regional Weather Roundup
Issued by NWS Sioux Falls, SD

Home | Current Version | Previous Version | Text Only | Print | Product List | Glossary On
Versions: 1 2 3 4 5 6 7 8 9 10 11 12 13 14 15 16 17 18 19 20 21 22 23 24 25 26 27 28 29 30 31 32 33 34 35 36 37 38 39 40 41 42 43 44 45 46 47 48 49 50
000
ASUS43 KFSD 310702
RWRFSD

WEATHER ROUNDUP FOR SE SOUTH DAKOTA/SW MINNESOTA/NW IOWA
NATIONAL WEATHER SERVICE SIOUX FALLS SD
200 AM CDT FRI OCT 31 2014

NOTE: "FAIR" INDICATES FEW OR NO CLOUDS BELOW 12,000 FEET WITH NO
SIGNIFICANT WEATHER AND OR OBSTRUCTIONS TO VISIBILITY.


SDZ038>040-050-052>070-310800-
SOUTHEAST SOUTH DAKOTA

CITY           SKY/WX    TMP DP  RH WIND       PRES   REMARKS
CHAMBERLAIN    CLEAR     24  19  82 N6        30.57S WCI  17
HURON          CLEAR     17  14  88 NW9       30.57R WCI   6
MADISON        FAIR      25  18  74 N14       30.50R WCI  13
MITCHELL       CLEAR     24  20  84 NW9       30.57R WCI  14
SIOUX FALLS    CLEAR     26  19  74 N10       30.50R WCI  16
WINNER         CLOUDY    29  21  72 NE10      30.56R WCI  20
YANKTON        CLEAR     28  19  69 NW8       30.54S WCI  20
$$

MNZ071-072-080-081-089-090-097-098-310800-
SOUTHWEST MINNESOTA

CITY           SKY/WX    TMP DP  RH WIND       PRES   REMARKS
FAIRMONT       CLEAR     30  16  55 N17G23    30.41R WCI  18
JACKSON        CLEAR     30  21  69 NW17G24   30.44R WCI  18
LUVERNE        CLEAR     30  21  69 N12G18    30.49R WCI  21
MARSHALL       CLEAR     27  18  69 N14       30.50R WCI  15
MONTEVIDEO     CLEAR     27  21  80 N8        30.53R WCI  18
PIPESTONE      CLEAR     27  19  74 N9G16     30.48R WCI  17
REDWOOD FALLS  CLEAR     29  20  69 N9        30.48R WCI  20
TRACY          CLEAR     28  22  81 N12       30.49R WCI  17
WINDOM         CLEAR     27  21  80 NW18      30.45R WCI  13
WORTHINGTON    CLEAR     27  19  74 N14       30.46R WCI  15
$$

IAZ001>003-012>014-020>022-031-032-NEZ013-014-SDZ071-310800-
NORTHWEST IOWA

CITY           SKY/WX    TMP DP  RH WIND       PRES   REMARKS
CHEROKEE       CLEAR     31  21  66 N15G21    30.45R WCI  21
DENISON        CLOUDY    34  25  69 N17G24    30.41R WCI  23
ESTHERVILLE    CLEAR     29  18  63 N15       30.42R WCI  18
LE MARS        CLEAR     30  21  69 N10G17    30.50R WCI  21
ORANGE CITY    CLEAR     30  21  69 N8        30.47R WCI  23
SHELDON        CLEAR     27  21  80 NW8       30.46R WCI  18
SIOUX CITY     PTCLDY    33  21  61 N18       30.50R WCI  22
SPENCER        CLEAR     30  19  63 N14       30.44R WCI  19
STORM LAKE     CLEAR     30  19  64 N16G25    30.42R WCI  19
$$

ABBREVIATIONS USED IN REMARKS
   TC - TEMPERATURE IN CELSIUS
  WCI - WIND CHILL INDEX
   HX - HEAT INDEX
  VSB - VISIBILITY




USA.gov is the U.S. government's official web portal to all federal, state and local government web resources and services.